XE1GMR-6 Weather Reports


Display with metric or nautical units.
time (UTC)temp
F
wind
direction
speed
MPH
gust
MPH
rain 1hr
in
rain 24hr
in
rain mn
in
humidity
%
barometer
mb
20260502152047 90 0.0 0.0 0.00 0.00 0.00 31 814.0
20260502130735 79 0.0 0.0 0.00 0.00 0.00 49 813.4
20260502123652 78 0.0 0.0 0.00 0.00 0.00 52 813.2
20260502122638 77 0.0 0.0 0.00 0.00 0.00 53 812.8
20260502121623 76 0.0 0.0 0.00 0.00 0.00 55 813.1
20260502120609 77 0.0 0.0 0.00 0.00 0.00 53 812.5
20260502115555 76 0.0 0.0 0.00 0.00 0.00 54 812.6
20260502114541 77 0.0 0.0 0.00 0.00 0.00 54 812.6
20260502113527 77 0.0 0.0 0.00 0.00 0.00 53 812.5
20260502112513 77 0.0 0.0 0.00 0.00 0.00 53 812.4
20260502111458 76 0.0 0.0 0.00 0.00 0.00 53 812.4
20260502110444 76 0.0 0.0 0.00 0.00 0.00 52 811.8
20260502105430 77 0.0 0.0 0.00 0.00 0.00 51 812.2
20260502104416 77 0.0 0.0 0.00 0.00 0.00 52 812.1
20260502103401 76 0.0 0.0 0.00 0.00 0.00 50 811.5
20260502102347 77 0.0 0.0 0.00 0.00 0.00 49 811.9
20260502101333 78 0.0 0.0 0.00 0.00 0.00 47 811.8
20260502100319 78 0.0 0.0 0.00 0.00 0.00 47 811.4
20260502091208 77 0.0 0.0 0.00 0.00 0.00 45 811.1
20260502090154 76 0.0 0.0 0.00 0.00 0.00 43 811.3
20260502070918 81 0.0 0.0 0.00 0.00 0.00 34 811.8
20260502065903 82 0.0 0.0 0.00 0.00 0.00 32 811.8
20260502064849 82 0.0 0.0 0.00 0.00 0.00 31 811.9
20260502063835 83 0.0 0.0 0.00 0.00 0.00 29 811.7
20260502062821 83 0.0 0.0 0.00 0.00 0.00 29 811.7
20260502061807 84 0.0 0.0 0.00 0.00 0.00 29 811.8
20260502060753 83 0.0 0.0 0.00 0.00 0.00 29 811.4
20260502055738 83 0.0 0.0 0.00 0.00 0.00 28 811.5
20260502054724 83 0.0 0.0 0.00 0.00 0.00 27 811.9
20260502053710 84 0.0 0.0 0.00 0.00 0.00 26 811.4
20260502052656 84 0.0 0.0 0.00 0.00 0.00 26 811.4
20260502051642 85 0.0 0.0 0.00 0.00 0.00 26 811.9
20260502050627 84 0.0 0.0 0.00 0.00 0.00 24 811.3
20260502045613 84 0.0 0.0 0.00 0.00 0.00 26 811.6
20260502044559 84 0.0 0.0 0.00 0.00 0.00 25 811.5
20260502043545 86 0.0 0.0 0.00 0.00 0.00 26 811.4
20260502042530 86 0.0 0.0 0.00 0.00 0.00 25 811.4
20260502041516 85 0.0 0.0 0.00 0.00 0.00 24 811.2
20260502040502 85 0.0 0.0 0.00 0.00 0.00 23 811.1
20260502035448 86 0.0 0.0 0.00 0.00 0.00 22 811.1
20260502034431 86 0.0 0.0 0.00 0.00 0.00 25 811.2
20260502032402 86 0.0 0.0 0.00 0.00 0.00 27 810.6
20260502031348 86 0.0 0.0 0.00 0.00 0.00 26 810.3
20260502030334 86 0.0 0.0 0.00 0.00 0.00 26 810.6
20260502025320 86 0.0 0.0 0.00 0.00 0.00 26 810.4
20260502024305 86 0.0 0.0 0.00 0.00 0.00 26 810.3
20260502023251 86 0.0 0.0 0.00 0.00 0.00 26 810.1
20260502022237 86 0.0 0.0 0.00 0.00 0.00 26 810.1
20260502021228 85 0.0 0.0 0.00 0.00 0.00 26 809.0
20260502020208 86 0.0 0.0 0.00 0.00 0.00 27 809.5
20260502015154 86 0.0 0.0 0.00 0.00 0.00 27 809.7
20260502014139 85 0.0 0.0 0.00 0.00 0.00 27 809.6
20260502013125 83 0.0 0.0 0.00 0.00 0.00 27 808.2
20260502012116 86 0.0 0.0 0.00 0.00 0.00 27 809.4
20260502011056 86 0.0 0.0 0.00 0.00 0.00 27 809.4
20260502010042 86 0.0 0.0 0.00 0.00 0.00 27 809.3
20260502005028 87 0.0 0.0 0.00 0.00 0.00 26 809.2
20260502004014 86 0.0 0.0 0.00 0.00 0.00 26 808.6
20260502002959 86 0.0 0.0 0.00 0.00 0.00 26 808.7
20260502001945 87 0.0 0.0 0.00 0.00 0.00 25 808.4
20260502000931 88 0.0 0.0 0.00 0.00 0.00 25 808.3
20260501235916 88 0.0 0.0 0.00 0.00 0.00 24 808.3
20260501234902 88 0.0 0.0 0.00 0.00 0.00 24 808.2
20260501233848 89 0.0 0.0 0.00 0.00 0.00 23 807.8
20260501232834 87 0.0 0.0 0.00 0.00 0.00 24 807.2
20260501231819 90 0.0 0.0 0.00 0.00 0.00 22 808.2
20260501230805 89 0.0 0.0 0.00 0.00 0.00 23 808.1
20260501225751 87 0.0 0.0 0.00 0.00 0.00 22 806.6
20260501224737 90 0.0 0.0 0.00 0.00 0.00 21 807.6
20260501222708 91 0.0 0.0 0.00 0.00 0.00 20 807.8
20260501221654 91 0.0 0.0 0.00 0.00 0.00 20 807.9
20260501220639 92 0.0 0.0 0.00 0.00 0.00 20 807.3
20260501213553 90 0.0 0.0 0.00 0.00 0.00 22 808.4
20260501212539 89 0.0 0.0 0.00 0.00 0.00 22 807.6
20260501204423 92 0.0 0.0 0.00 0.00 0.00 22 808.9
20260501202351 91 0.0 0.0 0.00 0.00 0.00 23 809.1
20260501201337 91 0.0 0.0 0.00 0.00 0.00 23 809.2
20260501200323 91 0.0 0.0 0.00 0.00 0.00 23 809.3
20260501195308 92 0.0 0.0 0.00 0.00 0.00 22 809.4
20260501194254 92 0.0 0.0 0.00 0.00 0.00 23 809.6
20260501193240 95 0.0 0.0 0.00 0.00 0.00 21 809.8
20260501192225 98 0.0 0.0 0.00 0.00 0.00 20 810.1
20260501191211 92 0.0 0.0 0.00 0.00 0.00 24 810.2
20260501190157 91 0.0 0.0 0.00 0.00 0.00 23 810.0
20260501185143 94 0.0 0.0 0.00 0.00 0.00 22 810.5
20260501184128 97 0.0 0.0 0.00 0.00 0.00 22 810.6
20260501183114 92 0.0 0.0 0.00 0.00 0.00 25 810.8
20260501182100 93 0.0 0.0 0.00 0.00 0.00 23 810.8
20260501180031 92 0.0 0.0 0.00 0.00 0.00 22 811.2
20260501175017 91 0.0 0.0 0.00 0.00 0.00 23 811.4
20260501174003 89 0.0 0.0 0.00 0.00 0.00 23 810.7
20260501172949 91 0.0 0.0 0.00 0.00 0.00 24 811.6
20260501171934 90 0.0 0.0 0.00 0.00 0.00 25 811.7
20260501170920 91 0.0 0.0 0.00 0.00 0.00 23 811.5
20260501165906 88 0.0 0.0 0.00 0.00 0.00 26 811.9
20260501164852 89 0.0 0.0 0.00 0.00 0.00 26 812.0
20260501163837 89 0.0 0.0 0.00 0.00 0.00 25 812.1
20260501162823 86 0.0 0.0 0.00 0.00 0.00 28 811.8
20260501161808 87 0.0 0.0 0.00 0.00 0.00 28 812.1
20260501160754 85 0.0 0.0 0.00 0.00 0.00 29 811.8
20260501155740 86 0.0 0.0 0.00 0.00 0.00 29 812.3
20260501154726 86 0.0 0.0 0.00 0.00 0.00 28 811.5
20260501153712 88 0.0 0.0 0.00 0.00 0.00 27 812.4